Regional Weather Roundup
Issued by NWS

Home | Current Version | Previous Version | Text Only | Print | Product List | Glossary On
Versions: 1 2 3 4 5 6 7 8 9 10 11 12 13 14 15 16 17 18 19 20 21 22 23 24 25 26 27 28 29 30 31 32 33 34 35 36 37 38 39 40 41 42 43 44 45 46 47 48 49 50
000
ASUS43 KLSX 271407
RWRMO

WEATHER SUMMARY FOR MISSOURI
NATIONAL WEATHER SERVICE SPRINGFIELD MO
900 AM CDT MON JUL 27 2015

NOTE: "FAIR" INDICATES FEW OR NO CLOUDS BELOW 12,000 FEET WITH NO
       SIGNIFICANT WEATHER AND/OR OBSTRUCTIONS TO VISIBILITY.
       CURRENT SKY AND/OR WEATHER CONDITIONS ARE NOT AVAILABLE FOR
       CHILLICOTHE AND FARMINGTON.

MOZ001>031-035>038-043-044-053-054-271500-
...NORTHERN AND WESTERN MISSOURI...

CITY           SKY/WX    TMP DP  RH WIND       PRES   REMARKS
KANSAS CTY INT PTSUNNY   80  74  81 S8        29.93R
KANSAS C DTWN  PTSUNNY   84  74  71 S6        29.92R HX  91
LEE`S SUMMIT   PTSUNNY   83  72  69 S7        29.95R
ST JOSEPH      MOSUNNY   81  75  82 S6        29.91S
CHILLICOTHE      N/A     85  78  80 S3        29.94S HX  96
KIRKSVILLE     MOSUNNY   80  76  87 E6        29.97F

$$
MOZ066>068-077>081-088>096-101>105-271500-
...SOUTHWEST MISSOURI...

CITY           SKY/WX    TMP DP  RH WIND       PRES   REMARKS
SPRINGFIELD    SUNNY     83  76  79 SW9       30.00R HX  91
JOPLIN         SUNNY     86  76  71 S8        29.98R HX  96

$$
MOZ032>034-039>042-045>050-055>058-069>072-271500-
...CENTRAL MISSOURI...

CITY           SKY/WX    TMP DP  RH WIND       PRES   REMARKS
COLUMBIA       MOSUNNY   83  77  82 W7        29.98R HX  92
JEFFERSON CITY MOSUNNY   83  77  82 CALM      29.96R HX  92
ROLLA          MOSUNNY   81  77  88 SW9       29.98R
SEDALIA        PTSUNNY   83  76  79 SW6       29.98R HX  91
WHITEMAN AFB   PTSUNNY   82  76  81 S5        29.96R
WARRENSBURG    PTSUNNY   79  73  83 CALM      29.95S
OSAGE BEACH    SUNNY     82  75  78 SW5       29.98R

$$
MOZ051-052-059>065-271500-
...EAST CENTRAL MISSOURI...

CITY           SKY/WX    TMP DP  RH WIND       PRES   REMARKS
ST LOUIS INTL  PTSUNNY   86  76  71 W5        29.97R HX  96
SPIRIT OF STL  MOSUNNY   82  79  90 W3        29.95R HX  92
ST CHARLES     MOSUNNY   83  78  85 CALM      29.95R HX  93

$$
MOZ072>076-082>087-097>100-106>115-271500-
...SOUTH CENTRAL AND SOUTHEAST MISSOURI...

CITY           SKY/WX    TMP DP  RH WIND       PRES   REMARKS
CAPE GIRARDEAU PTSUNNY   80  77  90 SE6       29.98R
FARMINGTON     SUNNY     82  75  78 NW5       30.03R
POPLAR BLUFF   PTSUNNY   83  78  85 SW7       29.96R HX  93
WEST PLAINS    MOSUNNY   83  75  77 SW8       30.02S HX  90

$$


USA.gov is the U.S. government's official web portal to all federal, state and local government web resources and services.